User: anonymous   Login
Location: Unspecified
(0.0000°N, 0.0000°E)
Time: 11:51:10
(UTC+00:00)
Language:

NUDTSAT - Orbit

View from above orbital plane
View from above orbital plane
View from above satellite
View from above satellite

Ground track
Ground track

The orbit data is extracted from the following two-line orbital elements,

1 42787U 17036Y   18347.91539470 +.00001493 +00000-0 +66729-4 0  9997
2 42787 097.3821 044.9629 0010785 157.4875 202.6846 15.22827721081714
Epoch (UTC): 13 December 2018 21:58:10
Eccentricity: 0.0010785
inclination: 97.3821°
perigee height: 490 km
apogee height: 505 km
right ascension of ascending node: 44.9629°
argument of perigee: 157.4875°
revolutions per day: 15.22827721
mean anomaly at epoch: 202.6846°
orbit number at epoch: 8171

The dashed part of the orbit path shows where the satellite is in the earth's shadow,  

DLR